Satellite: RS-30
Catalog number: 32953
Epoch time:      12088.23826990
Element set:     648
Inclination:      082.5068 deg
RA of node:       345.4821 deg
Eccentricity:    0.0019349
Arg of perigee:   121.5970 deg
Mean anomaly:     238.7006 deg
Mean motion:   12.43021674 rev/day
Decay rate:        1.0e-07 rev/day^2
Epoch rev:           17450
Checksum:              293

Satellite: TACSAT-3
Catalog number: 35001
Epoch time:      12087.74583042
Element set:    0925
Inclination:      040.4457 deg
RA of node:       214.0655 deg
Eccentricity:    0.0011651
Arg of perigee:   026.6683 deg
Mean anomaly:     333.4743 deg
Mean motion:   15.85777844 rev/day
Decay rate:    2.02185e-03 rev/day^2
Epoch rev:           16155
Checksum:              297

Satellite: PHARMSAT
Catalog number: 35002
Epoch time:      12088.57152688
Element set:     840
Inclination:      040.4638 deg
RA of node:       217.7335 deg
Eccentricity:    0.0002903
Arg of perigee:   275.8509 deg
Mean anomaly:     084.1951 deg
Mean motion:   15.69961702 rev/day
Decay rate:     6.6783e-04 rev/day^2
Epoch rev:           16159
Checksum:              319

Satellite: METEOR-M
Catalog number: 35865
Epoch time:      12088.22357183
Element set:     273
Inclination:      098.6640 deg
RA of node:       144.0329 deg
Eccentricity:    0.0001745
Arg of perigee:   301.5027 deg
Mean anomaly:     058.5978 deg
Mean motion:   14.21858194 rev/day
Decay rate:       -9.0e-08 rev/day^2
Epoch rev:           13109
Checksum:              301

Satellite: RS-38
Catalog number: 35869
Epoch time:      12088.18610434
Element set:     280
Inclination:      098.6598 deg
RA of node:       144.0045 deg
Eccentricity:    0.0003823
Arg of perigee:   292.0952 deg
Mean anomaly:     067.9821 deg
Mean motion:   14.22060558 rev/day
Decay rate:        2.3e-07 rev/day^2
Epoch rev:           13110
Checksum:              294

Satellite: JUGNU
Catalog number: 37839
Epoch time:      12087.48076735
Element set:     116
Inclination:      019.9603 deg
RA of node:       133.2274 deg
Eccentricity:    0.0019401
Arg of perigee:   043.4242 deg
Mean anomaly:     316.7688 deg
Mean motion:   14.12037981 rev/day
Decay rate:       6.19e-06 rev/day^2
Epoch rev:            2368
Checksum:              299

Satellite: SRMSAT
Catalog number: 37841
Epoch time:      12088.41487279
Element set:     118
Inclination:      019.9728 deg
RA of node:       130.8565 deg
Eccentricity:    0.0011675
Arg of perigee:   023.4267 deg
Mean anomaly:     336.6693 deg
Mean motion:   14.10124577 rev/day
Decay rate:       2.64e-06 rev/day^2
Epoch rev:            2377
Checksum:              310

Satellite: RAX-2
Catalog number: 37853
Epoch time:      12087.97354212
Element set:    0144
Inclination:      101.7172 deg
RA of node:       091.2252 deg
Eccentricity:    0.0249871
Arg of perigee:   222.2380 deg
Mean anomaly:     135.9333 deg
Mean motion:   14.79251602 rev/day
Decay rate:      2.471e-05 rev/day^2
Epoch rev:           02239
Checksum:              281

Satellite: AUBIESAT
Catalog number: 37854
Epoch time:      12088.48872981
Element set:     136
Inclination:      101.7166 deg
RA of node:       092.1228 deg
Eccentricity:    0.0251414
Arg of perigee:   219.9733 deg
Mean anomaly:     138.2721 deg
Mean motion:   14.79579933 rev/day
Decay rate:      2.439e-05 rev/day^2
Epoch rev:            2245
Checksum:              320

Satellite: HRBE
Catalog number: 37855
Epoch time:      12088.56306375
Element set:     135
Inclination:      101.7197 deg
RA of node:       092.2077 deg
Eccentricity:    0.0251449
Arg of perigee:   219.9600 deg
Mean anomaly:     138.2860 deg
Mean motion:   14.79468373 rev/day
Decay rate:      2.337e-05 rev/day^2
Epoch rev:            2246
Checksum:              313

Satellite: RS-39
Catalog number: 38051
Epoch time:      12088.44815382
Element set:     193
Inclination:      051.6419 deg
RA of node:       184.1942 deg
Eccentricity:    0.0011131
Arg of perigee:   105.4282 deg
Mean anomaly:     349.3903 deg
Mean motion:   15.22928230 rev/day
Decay rate:      6.591e-05 rev/day^2
Epoch rev:             966
Checksum:              296

Satellite: E-STAR
Catalog number: 38079
Epoch time:      12088.28256558
Element set:     108
Inclination:      069.4919 deg
RA of node:       139.8433 deg
Eccentricity:    0.0771307
Arg of perigee:   349.6147 deg
Mean anomaly:     008.9770 deg
Mean motion:   14.08655466 rev/day
Decay rate:     3.4063e-04 rev/day^2
Epoch rev:             616
Checksum:              337

Satellite: GOLIAT
Catalog number: 38085
Epoch time:      12088.50959210
Element set:     106
Inclination:      069.4865 deg
RA of node:       139.3775 deg
Eccentricity:    0.0770521
Arg of perigee:   349.2869 deg
Mean anomaly:     009.2655 deg
Mean motion:   14.08074427 rev/day
Decay rate:     3.2289e-04 rev/day^2
Epoch rev:             619
Checksum:              328

/EX
_______________________________________________
Via the Keps mailing list courtesy of AMSAT-NA
http://amsat.org/mailman/listinfo/keps

--- ViaMAIL!/WC v1.60d
 * Origin: Chowdanet (401-724-4410) telnet://chowdanet.com  (1:323/120)